Regional Weather Roundup
Issued by NWS

Home | Current Version | Previous Version | Text Only | Print | Product List | Glossary On
Versions: 1 2 3 4 5 6 7 8 9 10 11 12 13 14 15 16 17 18 19 20 21 22 23 24 25 26 27 28 29 30 31 32 33 34 35 36 37 38 39 40 41 42 43 44 45 46 47 48 49 50
000
ASUS43 KOAX 232310
RWRNE

WEATHER ROUNDUP FOR NEBRASKA
NATIONAL WEATHER SERVICE OMAHA NE
500 PM CST THU FEB 23 2017

NOTES: SATELLITE DATA IS BEING USED TO AUGMENT CLOUD COVER ABOVE
       12000 FEET.
       "FAIR" INDICATES FEW OR NO CLOUDS BELOW 12,000 FEET WITH NO
       SIGNIFICANT WEATHER AND/OR OBSTRUCTIONS TO VISIBILITY.

  * THESE STATIONS DO NOT REPORT WEATHER SUCH AS RAIN...SNOW OR FOG.

NEZ001>004-019>022-054>056-240000-
NEBRASKA PANHANDLE

CITY           SKY/WX    TMP DP  RH WIND       PRES   REMARKS
SCOTTSBLUFF    SNOW      24  20  84 N9        29.78R VSB 1/2 WCI  14
ALLIANCE       FOG       22  19  89 NE28G37   29.71R VSB 1/4 WCI   4
CHADRON        CLOUDY    25  21  85 NE17      29.82R FOG     WCI  12
KIMBALL        LGT SNOW  21  20  96 N15G22    29.70R WCI   8
SIDNEY         LGT SNOW  23  19  85 N18       29.70R FOG     WCI   9
$$

NEZ057>060-069>072-079>082-240000-
SOUTHWEST NEBRASKA

CITY           SKY/WX    TMP DP  RH WIND       PRES   REMARKS
NORTH PLATTE   MIX PCPN  30  24  78 NE17G24   29.67R WCI  18
IMPERIAL       LGT SNOW  27  25  92 N17       29.66R VSB 3/4 WCI  14
LEXINGTON      LGT SNOW  31  28  91 N10       29.62R WCI  22
MCCOOK         CLOUDY    31  30  96 N13       29.63R WCI  21
OGALLALA       LGT SNOW  29  26  88 N13       29.69R VSB 1   WCI  18
$$

NEZ005>010-023>029-035>040-094-240000-
NORTH CENTRAL NEBRASKA

CITY           SKY/WX    TMP DP  RH WIND       PRES   REMARKS
VALENTINE      SNOW      26  22  84 N21G30    29.76S VSB 1/4 WCI  12
AINSWORTH      SNOW      27  26  96 N20G29    29.72R VSB 1/2 WCI  13
BROKEN BOW     LGT SNOW  29  27  92 NE16G22   29.65R VSB 3/4 WCI  17
O`NEILL        SNOW      29  28  96 N21G29    29.71R VSB 1/2 WCI  16
ORD            SNOW      30  27  88 NE13      29.67R VSB 1/2 WCI  20
THEDFORD       LGT SNOW  27  25  91 N10G23    29.72R WCI  18
$$

NEZ041-046>049-061>064-073>077-083>087-240000-
SOUTH CENTRAL NEBRASKA

CITY           SKY/WX    TMP DP  RH WIND       PRES   REMARKS
GRAND ISLAND   LGT SNOW  32  32 100 N15       29.65R FOG     WCI  22
AURORA         MIX PCPN  33  32  98 NE14G21   29.63R WCI  23
HASTINGS       MIX PCPN  33  31  92 NE17G28   29.60F FOG     WCI  22
HEBRON         LGT RAIN  38  37  94 N13G18    29.55R WCI  30
HOLDREGE       CLOUDY    32  31  95 NE17      29.59R WCI  21
KEARNEY *      PTSUNNY   32  28  86 NE17G26   29.61F WCI  21
YORK           CLOUDY    34  34 100 NE17      29.59R FOG     WCI  23
$$

NEZ011>018-030>034-042>045-240000-
NORTHEAST NEBRASKA

CITY           SKY/WX    TMP DP  RH WIND       PRES   REMARKS
NORFOLK        SNOW      31  27  85 NE21G32   29.66R VSB 1/2 WCI  18
ALBION         LGT SNOW  32  29  89 NE15G23   29.67R VSB 1   WCI  22
BLAIR          TSTM      38  34  88 NE20G26   29.59R WCI  27
FREMONT        TSTM      37  34  90 NE14G22   29.64R WCI  28
TEKAMAH        CLOUDY    37  32  82 NE20G32   29.65R WCI  27
WAYNE          LGT SNOW  32  30  92 NE22G29   29.68R WCI  19
$$

NEZ050>053-065>068-078-088>093-240000-
SOUTHEAST NEBRASKA

CITY           SKY/WX    TMP DP  RH WIND       PRES   REMARKS
LINCOLN        TSTM      38  36  92 NE20G28   29.57F FOG     WCI  28
OMAHA EPPLEY   LGT RAIN  39  34  82 NE20G28   29.60F WCI  29
BEATRICE       CLOUDY    41  39  93 NE13G22   29.52F FOG
FALLS CITY     CLOUDY    49  41  74 NE17      29.47F
NEBRASKA CITY  CLOUDY    42  36  81 NE22      29.53R
PLATTSMOUTH    CLOUDY    40  35  82 NE20G26   29.55R THUNDER WCI  31
$$

NEZ044-045-051>053-067-240000-
OMAHA AREA

CITY           SKY/WX    TMP DP  RH WIND       PRES   REMARKS
OMAHA EPPLEY   LGT RAIN  39  34  82 NE20G28   29.60F WCI  29
BLAIR          TSTM      38  34  88 NE20G26   29.59R WCI  27
FREMONT        TSTM      37  34  90 NE14G22   29.64R WCI  28
MILLARD        TSTM      41  37  86 NE9G21    29.59R
OFFUTT AFB     CLOUDY    40  36  85 NE17G24   29.57F WCI  31
PLATTSMOUTH    CLOUDY    40  35  82 NE20G26   29.55R THUNDER WCI  31
WAHOO          LGT RAIN  37  35  90 NE25      29.58F WCI  25
$$



USA.gov is the U.S. government's official web portal to all federal, state and local government web resources and services.